Location: Cold Norton
(51.6667°N, 0.6667°E)
Time: 16:44:34
(UTC+00:00)

Cosmos 1954 Rocket - Pass Details

Date: 18 November 2025
Orbit: 749 x 776 km, 74.0° (Epoch: 12 December)

Event Time Altitude Azimuth Distance (km) Brightness Sun altitude
Rises 18:06:59 0° 192° (SSW) 3,237 7.5 -18.8°
Reaches altitude 10° 18:09:23 10° 189° (S) 2,311 6.7 -19.2°
Maximum altitude 18:14:33 62° 110° (ESE) 862 3.9 -20.0°
Enters shadow 18:16:54 32° 41° (NE) 1,300 4.8 -20.4°
